User: anonymous   Login
Location: Grand Rapids
(42.9630°N, 85.6680°W)
Time: 03:35:39
(UTC-04:00)
Language:

Courier 1B Rocket - Orbit

View from above orbital plane
View from above orbital plane
View from above satellite
View from above satellite

Ground track
Ground track

The orbit data is extracted from the following two-line orbital elements,

1 00059U 60013B   24150.83790174  .00000160  00000-0  94310-4 0  9993
2 00059  28.2505   8.6190 0189031 153.1476 207.8995 13.53075507141733
Epoch (UTC): 29 May 2024 20:06:34
Eccentricity: 0.0189031
inclination: 28.2505°
perigee height: 920 km
apogee height: 1201 km
right ascension of ascending node: 8.6190°
argument of perigee: 153.1476°
revolutions per day: 13.53075507
mean anomaly at epoch: 207.8995°
orbit number at epoch: 14173

The dashed part of the orbit path shows where the satellite is in the earth's shadow,  

DLR